Powrót do katalogu

SCOUT G-1 DEB

AktywnyPO
NORAD 44570·DEBRIS·🇺🇸 United States

Wystrzelony Aug 3, 1985 z Vandenberg Space Force Base

Loading…

Następne Przeloty (najbliższe 24 godziny)

TLE

NieaktualneSource: Space-Track

Epoka: Aug 31, 2026, 09:44 UTC

1 44570U 85066J   26243.40579030  .00000495  00000-0  85207-3 0  9993
2 44570  90.1570  97.4123 0161534  66.7746  51.5544 13.38022039609185

Śledź SCOUT G-1 DEB w czasie rzeczywistym z AllMySat

Download on the App Store